Miscellaneous Local Product
Issued by NWS Hastings, NE

Home | Current Version | Previous Version | Graphics & Text | Print | Product List | Glossary On
Versions: 1 2 3 4 5 6 7 8 9 10 11 12 13 14 15 16 17 18 19 20 21 22 23 24 25 26 27 28 29 30 31 32 33 34 35 36 37 38 39 40 41 42 43 44 45 46 47 48 49 50
613
AXUS43 KGID 220502
MISGRI

GID CWA HOURLY WEATHER ROUNDUP
NATIONAL WEATHER SERVICE HASTINGS NE
1200 AM CDT WED MAR 22 2017

NOTE: "FAIR" INDICATES FEW OR NO CLOUDS BELOW 12,000 FEET WITH NO
SIGNIFICANT WEATHER AND/OR OBSTRUCTIONS TO VISIBILITY.

...SOUTH CENTRAL NEBRASKA...

CITY           SKY/WX    TMP DP  RH WIND       PRES   REMARKS
GRAND ISLAND   FAIR      34  27  75 NE7       30.39F WCI  28
HASTINGS       FAIR      35  24  64 NE9       30.39S WCI  28
KEARNEY        MOCLDY    36  25  64 NE13      30.38S WCI  27
ORD            FAIR      35  27  72 E3        30.37F
YORK           FAIR      32  25  74 NE7       30.40S WCI  26
AURORA         FAIR      34  26  71 NE6       30.39S WCI  29
LEXINGTON      CLOUDY    37  26  67 E14       30.36R WCI  28
HOLDREGE       FAIR      36  25  64 NE9       30.37R WCI  29
HEBRON         FAIR      37  26  64 NE6       30.38F WCI  32

...NEBRASKA PANHANDLE...

CITY           SKY/WX    TMP DP  RH WIND       PRES   REMARKS
CHADRON        LGT RAIN  39  32  76 SE8       30.20S WCI  33
ALLIANCE       MOCLDY    36  31  82 SE23G30   30.21R WCI  24
SCOTTSBLUFF    FAIR      41  29  62 SE22G29   30.18R
SIDNEY         FAIR      41  27  57 SE23G37   30.18F

...WESTERN AND NORTH CENTRAL NEBRASKA...

CITY           SKY/WX    TMP DP  RH WIND       PRES   REMARKS
VALENTINE      CLOUDY    32  25  75 SE14      30.35F WCI  22
AINSWORTH      CLOUDY    32  29  88 SE7       30.37S WCI  26
ONEILL         CLOUDY    35  28  76 E7        30.40F WCI  29
BROKEN BOW     CLOUDY    35  25  66 VRB3      30.38R
IMPERIAL       MOCLDY    38  31  76 E17       30.29F WCI  28
NORTH PLATTE   FAIR      38  28  67 E15       30.34F WCI  29
MCCOOK         FAIR      40  32  73 E15       30.35R WCI  32

...EASTERN NEBRASKA...

CITY           SKY/WX    TMP DP  RH WIND       PRES   REMARKS
NORFOLK        CLOUDY    35  24  64 E13       30.42R WCI  26
SO SIOUX CITY  MOCLDY    34  23  64 NE10      30.47S WCI  26
TEKAMAH        MOCLDY    36  27  69 N8        30.46S WCI  30
COLUMBUS       CLOUDY    37  23  56 NE14      30.43R WCI  29
ALBION         CLOUDY    39  24  55 E10       30.40F WCI  32
OMAHA EPPLEY   CLOUDY    40  25  55 NE17      30.43S WCI  31
OFFUTT AFB     MOCLDY    40  25  55 NE10G22   30.42S WCI  33
MILLARD        MOCLDY    42  27  54 NE9       30.43S
LINCOLN        FAIR      35  26  69 NE9       30.42S WCI  28
NEBRASKA CITY  FAIR      39  19  45 NE13      30.40S WCI  31
BEATRICE       FAIR      39  28  63 NE7       30.38F WCI  34
FALLS CITY     FAIR      42  22  44 NE10      30.38S

...NORTHERN KANSAS...

CITY           SKY/WX    TMP DP  RH WIND       PRES   REMARKS
GOODLAND       MOCLDY    43  25  49 SE15      30.27R
HILL CITY      FAIR      42  34  73 E9        30.35R
NORTON         PTCLDY    37  27  65 NE9G17    30.33F WCI  31
PHILLIPSBURG   CLEAR     39  27  60 NE10      30.36R WCI  32
HAYS             N/A     46  35  65 NE22      30.31R
RUSSELL        CLOUDY    46  34  62 NE17G25   30.29R
CONCORDIA      CLOUDY    41  27  57 NE12      30.34S
SALINA         FAIR      49  32  52 NE15G24   30.29F
TOPEKA         FAIR      45  28  51 NE14      30.33R



USA.gov is the U.S. government's official web portal to all federal, state and local government web resources and services.